{"data":{"norad_id":61742,"intl_designator":"2024-199H","name":"SITRO-AIS 23","alt_names":[],"object_type":"PAYLOAD","status":"ACTIVE","operator":null,"country":"CIS","launch_date":"2024-11-04","launch_site_code":"VOSTO","launch_vehicle":null,"mission":null,"orbit_class":"UNKNOWN","rcs_meters":null,"size_class":null,"mass_kg":null,"dimensions":null,"purposes":[],"wikipedia_slug":null,"has_3d_model":false,"image_url":null,"decayed_at":null,"tle_current":{"epoch":"2026-09-22T19:17:44.913120Z","epoch_age_seconds":100817,"freshness":"FRESH","line1":"1 61742U 24199H   26265.80399205  .00001638  00000+0  14931-3 0  9990","line2":"2 61742  97.3208  97.5636 0013767  93.6581 266.6216 14.96304680146363","mean_motion":14.9630468,"eccentricity":0.0013767,"inclination_deg":97.3208,"raan_deg":97.5636,"arg_perigee_deg":93.6581,"mean_anomaly_deg":266.6216,"bstar":0.00014931,"rev_number":14636,"period_min":96.23708454885,"perigee_km":568.74912672209,"apogee_km":587.9030521926,"semimajor_km":6956.4630894573,"source":"CELESTRAK","updated_at":"2026-09-23T09:00:21.024095Z"}}}